Theta_e
332 331 331 331 330 329 329 329 330 329 329 329 328 328 327 324 323 323 322 321 320 319
330 330 330 330 331 330 330 329 329 328 328 328 328 327 327 324 322 322 321 320 320 319
328 329 329 329 328 329 329 328 327 327 327 327 327 327 326 324 323 322 322 321 320 319
326 326 328 328 328 327 328 327 326 326 326 325 325 325 325 323 323 321 320 320 320 320
324 324 324 325 326 326 326 326 325 325 324 324 324 323 323 321 321 321 319 319 319 319
320 320 321 322 323 323 323 323 321 322 321 321 320 319 319 315 314 315 316 316 317 315
318 319 320 320 319 317 313 312 313 313 314 313 312 311 309 306 305 306 307 308 308 310
316 317 314 309 307 306 306 306 306 306 305 306 305 303 303 301 301 300 301 301 302 301
307 303 302 302 302 302 302 302 302 302 301 301 297 294 294 298 300 299 297 297 298 297
300 298 299 298 298 298 299 300 299 298 298 297 297 294 294 293 297 297 297 295 293 293
296 296 295 294 294 295 295 295 295 294 295 295 293 292 293 292 296 296 294 292 292 291
295 293 293 293 294 293 293 292 292 291 291 290 290 291 292 292 291 290 289 289 290 290
294 293 292 293 292 292 291 289 290 288 289 288 288 291 292 291 290 287 288 288 288 287
291 291 293 292 292 290 288 288 288 287 287 287 287 290 291 290 289 289 288 288 287 288
Wind_Speed
22 13 14 16 12 11 11 10 12 12 13 14 14 13 12 9 10 11 9 13 10 8
18 19 15 18 15 11 12 9 12 12 12 12 12 12 12 9 10 9 10 10 11 10
17 18 17 15 16 15 13 12 11 12 12 11 11 11 11 10 10 10 8 8 9 9
15 16 15 14 14 14 13 12 12 11 11 11 11 11 10 10 11 12 11 10 11 13
14 14 14 15 14 13 13 12 12 11 11 10 10 10 10 11 9 11 10 9 10 10
13 14 15 14 13 12 11 10 8 8 9 9 9 7 5 1 2 4 5 4 5 4
14 15 13 12 11 9 7 8 7 6 6 6 5 5 3 1 2 5 6 7 6 6
12 12 11 9 9 8 8 7 7 7 6 6 5 3 3 2 3 4 4 4 5 4
11 10 9 9 10 9 8 8 7 7 6 5 2 6 5 3 3 3 3 3 2 2
11 10 9 9 8 8 10 9 8 7 6 6 6 6 6 6 4 4 3 2 2 1
11 11 10 10 11 10 8 8 8 7 7 6 5 6 5 6 4 3 3 2 1 1
13 13 13 12 11 10 9 8 8 6 6 6 5 7 7 6 4 4 4 3 2 1
13 13 13 12 12 8 8 8 7 6 4 4 5 8 9 8 4 5 4 3 2 1
11 12 11 12 9 10 9 8 7 7 5 5 5 6 10 9 4 4 4 4 3 1
Wind_Direction
214 217 219 221 219 220 221 219 217 212 218 223 229 231 230 231 233 233 231 235 234 236
211 215 215 218 220 220 222 224 216 213 216 225 228 230 230 228 230 223 225 230 233 237
205 211 216 218 219 218 221 219 215 218 222 224 226 228 228 229 232 232 232 231 228 244
203 207 213 216 217 216 218 216 219 218 219 222 224 226 232 232 236 239 246 244 245 246
198 200 206 212 213 210 213 210 213 213 218 222 226 224 234 240 238 245 246 248 255 257
193 195 203 206 207 203 204 204 196 203 212 224 230 232 219 302 317 299 290 305 286 284
192 196 198 192 187 181 177 181 192 201 203 195 195 206 217 178 285 289 292 305 310 304
183 184 177 171 166 162 168 175 169 166 175 182 187 171 190 133 233 267 303 304 307 327
168 163 159 155 157 152 153 155 154 165 165 174 134 140 158 177 211 221 240 248 288 295
155 154 153 142 146 153 160 152 158 161 151 173 155 141 150 176 191 195 213 227 225 220
156 156 152 153 165 162 154 157 163 158 153 166 152 157 170 180 168 154 120 89 32 349
168 162 162 167 162 158 159 159 155 150 154 171 163 179 168 160 144 131 123 94 60 21
171 167 168 161 158 150 156 149 143 143 159 179 162 182 160 155 154 130 128 114 111 97
164 164 160 149 151 144 148 150 144 142 169 172 166 164 149 144 139 140 136 133 137 143